Home > Weather > Taloyoak > Past weeks

Flag for Canada Past Weather in Taloyoak, Nunavut, Canada — Yesterday and Last 2 Weeks

Now
43 °F

Fog.


Feels Like: 37 °F
Forecast: 39 / 47 °F
Wind: 10 mph from Southwest

Location: Spence Bay Airport

Current Time: Jul 30, 2016 at 8:57:20 AM

Latest Report: Jul 30, 2016 at 8:00 AM


Visibility: 0 mi

Pressure: 29.86 "Hg

Humidity: 100%

Dew Point: 43 °F

Location of TaloyoakLocation

Past Weather in Taloyoak — Graph

°F

Taloyoak Temperature Yesterday

Maximum temperature yesterday: 46 °F (at 12:55 PM)
Minimum temperature yesterday: 41 °F (at 12:00 AM)
Average temperature yesterday: 43 °F

High & Low Weather Summary for the Past Weeks

 TemperatureHumidityPressure
High59 °F (Jul 16, 4:00 PM)100% (Jul 15, 3:00 PM)30.13 "Hg (Jul 15, 3:00 PM)
Low36 °F (Jul 15, 3:00 PM)43% (Jul 22, 8:00 PM)29.23 "Hg (Jul 15, 1:00 PM)
Average46 °F80%29.69 "Hg
* Reported Jul 15 7:00 AM — Jul 30 7:00 AM, Taloyoak, Weather by CustomWeather, © 2016

Note: Actual official high and low records may vary slightly from our data, if they occured in-between our weather recording intervals... More about our weather records

Advertising

Taloyoak Weather History for the Previous 24 Hours

Scroll right to see more
 ConditionsComfort  
Time TempWeatherWind HumidityBarometerVisibility
7:00 AM
Sat, Jul 30
43 °FFog.8 mph100%29.85 "Hg1 mi
6:00 AM43 °FLight rain. Fog.5 mph100%29.85 "Hg15 mi
5:00 AM43 °FLight rain. Fog.5 mph100%29.85 "Hg10 mi
4:00 AM43 °FSprinkles. Fog.7 mph100%29.84 "Hg1 mi
3:00 AM45 °FDrizzle. Fog.7 mph93%29.84 "Hg1 mi
2:00 AM45 °FDrizzle. Fog.8 mph100%29.84 "Hg1 mi
1:00 AM45 °FFog.6 mph93%29.84 "Hg1 mi
12:00 AM43 °FFog.6 mph100%29.84 "Hg1 mi
11:00 PM
Fri, Jul 29
43 °FFog.9 mph100%29.83 "Hg1 mi
10:00 PM43 °FFog.8 mph100%29.82 "Hg1 mi
9:00 PM43 °FFog.5 mph93%29.82 "Hg1 mi
8:00 PM46 °FFog.5 mph93%29.81 "Hg5 mi
7:00 PM45 °FFog.9 mph100%29.80 "Hg10 mi
6:00 PM45 °FDrizzle. Fog.10 mph93%29.80 "Hg8 mi
5:00 PM45 °FDrizzle. Fog.14 mph100%29.80 "Hg8 mi
4:45 PM46 °FDrizzle. Fog.15 mph93%29.80 "Hg5 mi
4:00 PM45 °FScattered showers. Partly sunny.16 mph93%29.80 "Hg15 mi
3:00 PM45 °FSprinkles. Broken clouds.17 mph93%29.80 "Hg15 mi
2:00 PM43 °FScattered showers. Partly sunny.18 mph100%29.80 "Hg15 mi
1:00 PM46 °FSprinkles. Partly sunny.17 mph93%29.81 "Hg12 mi
12:55 PM46 °FSprinkles. Partly sunny.17 mph87%29.81 "Hg12 mi
12:00 PM45 °FPartly sunny.16 mph93%29.82 "Hg15 mi
11:00 AM45 °FFog.16 mph93%29.83 "Hg12 mi
10:00 AM41 °FLight rain. Fog.17 mph100%29.83 "Hg10 mi
9:00 AM43 °FLight rain. Fog.15 mph93%29.84 "Hg8 mi
8:00 AM43 °FLight rain. Fog.15 mph93%29.84 "Hg10 mi
Weather by CustomWeather, © 2016

See weather overviewHow to use our weather pages